When you browse on this site, cookies collect data to enhance your experience and personalize the content and advertising you see.
Visit our Privacy Policy to learn more. By continuing to use the site, you agree to this use of cookies and data.
  • In Hungary
  • List of Countries
  • For 7 days
  • Water Temperature
  • Satellite Maps
  • Weather Map
  • News
  • Weather Widgets
  • user-avatar
    Login

    Hourly Weather Kudashevo

    Today, 21 November, Wednesday

    Time Temperature Precipitation Wind Pressure Humidity
    00:00 -5°C° 0 mm 4 mps 752 mmHg 90%
    01:00 -5°C° 0 mm 4 mps 752 mmHg 89%
    02:00 -5°C° 0 mm 4 mps 751 mmHg 88%
    03:00 -6°C° 0 mm 5 mps 751 mmHg 87%
    04:00 -5°C° 0 mm 4 mps 750 mmHg 88%
    05:00 -6°C° 0.1 mm 5 mps 749 mmHg 88%
    06:00 -6°C° 0.1 mm 5 mps 749 mmHg 88%
    07:00 -8°C° 0.1 mm 6 mps 748 mmHg 88%
    08:00 -6°C° 0.3 mm 6 mps 747 mmHg 89%
    09:00 -6°C° 0.3 mm 6 mps 747 mmHg 90%
    10:00 -6°C° 0 mm 6 mps 746 mmHg 90%
    11:00 -6°C° 0.6 mm 6 mps 745 mmHg 91%
    12:00 -6°C° 0.6 mm 6 mps 744 mmHg 91%
    13:00 -6°C° 0.6 mm 6 mps 744 mmHg 91%
    14:00 -6°C° 0.3 mm 5 mps 743 mmHg 91%
    15:00 -6°C° 0.3 mm 5 mps 743 mmHg 91%
    16:00 -5°C° 0 mm 4 mps 742 mmHg 91%
    17:00 -5°C° 0.2 mm 4 mps 742 mmHg 91%
    18:00 -6°C° 0.2 mm 5 mps 742 mmHg 92%
    19:00 -6°C° 0.2 mm 5 mps 742 mmHg 92%
    20:00 -6°C° 0.1 mm 5 mps 742 mmHg 90%
    21:00 -6°C° 0.1 mm 5 mps 742 mmHg 88%
    22:00 -7°C° 0.1 mm 5 mps 741 mmHg 85%
    23:00 -8°C° 0 mm 5 mps 742 mmHg 86%

    Tomorrow, 22 November, Thursday

    Time Temperature Precipitation Wind Pressure Humidity
    00:00 -8°C° 0 mm 5 mps 742 mmHg 87%
    01:00 -10°C° 0 mm 5 mps 742 mmHg 87%
    02:00 -10°C° 0 mm 5 mps 742 mmHg 88%
    03:00 -10°C° 0 mm 5 mps 742 mmHg 89%
    04:00 -10°C° 0 mm 5 mps 742 mmHg 90%
    05:00 -11°C° 0.1 mm 5 mps 742 mmHg 90%
    06:00 -11°C° 0.1 mm 5 mps 742 mmHg 90%
    07:00 -11°C° 0.1 mm 5 mps 742 mmHg 90%
    08:00 -11°C° 0.1 mm 5 mps 742 mmHg 89%
    09:00 -11°C° 0.1 mm 5 mps 743 mmHg 89%
    10:00 -11°C° 0.1 mm 5 mps 743 mmHg 89%
    11:00 -10°C° 0 mm 4 mps 742 mmHg 88%
    12:00 -10°C° 0 mm 4 mps 742 mmHg 88%
    13:00 -10°C° 0 mm 4 mps 742 mmHg 88%
    14:00 -10°C° 0.1 mm 4 mps 741 mmHg 89%
    15:00 -10°C° 0.1 mm 5 mps 741 mmHg 90%
    16:00 -10°C° 0.1 mm 5 mps 740 mmHg 91%
    17:00 -10°C° 0.6 mm 6 mps 739 mmHg 91%
    18:00 -9°C° 0.6 mm 7 mps 738 mmHg 91%
    19:00 -10°C° 0.6 mm 8 mps 737 mmHg 91%
    20:00 -10°C° 0.4 mm 8 mps 737 mmHg 90%
    21:00 -10°C° 0.4 mm 8 mps 736 mmHg 90%
    22:00 -10°C° 0.4 mm 8 mps 735 mmHg 89%
    23:00 -8°C° 0.5 mm 8 mps 735 mmHg 89%

    Day after tomorrow, 23 November, Friday

    Time Temperature Precipitation Wind Pressure Humidity
    00:00 -8°C° 0.5 mm 8 mps 735 mmHg 89%
    01:00 -8°C° 0.5 mm 8 mps 734 mmHg 89%
    02:00 -9°C° 0.1 mm 6 mps 735 mmHg 88%
    03:00 -11°C° 0.1 mm 5 mps 735 mmHg 87%
    04:00 -11°C° 0.1 mm 4 mps 735 mmHg 87%
    05:00 -12°C° 0 mm 4 mps 736 mmHg 88%
    06:00 -14°C° 0 mm 4 mps 736 mmHg 89%
    07:00 -13°C° 0 mm 3 mps 736 mmHg 90%
    08:00 -14°C° 0 mm 4 mps 737 mmHg 89%
    09:00 -14°C° 0 mm 4 mps 738 mmHg 89%
    10:00 -12°C° 0 mm 4 mps 738 mmHg 88%
    11:00 -13°C° 0 mm 5 mps 739 mmHg 86%
    12:00 -14°C° 0 mm 6 mps 740 mmHg 84%
    13:00 -14°C° 0 mm 6 mps 740 mmHg 82%
    14:00 -14°C° 0 mm 6 mps 741 mmHg 81%
    15:00 -15°C° 0 mm 6 mps 742 mmHg 81%
    16:00 -15°C° 0 mm 5 mps 743 mmHg 81%
    17:00 -15°C° 0 mm 5 mps 744 mmHg 82%
    18:00 -17°C° 0 mm 5 mps 745 mmHg 83%
    19:00 -18°C° 0 mm 5 mps 745 mmHg 84%
    20:00 -18°C° 0 mm 5 mps 746 mmHg 86%
    21:00 -18°C° 0 mm 4 mps 747 mmHg 89%
    22:00 -19°C° 0 mm 4 mps 747 mmHg 92%
    23:00 -19°C° 0 mm 4 mps 748 mmHg 93%

    24 November, Saturday

    Time Temperature Precipitation Wind Pressure Humidity
    00:00 -18°C° 0 mm 3 mps 748 mmHg 93%
    01:00 -18°C° 0 mm 3 mps 749 mmHg 94%
    02:00 -18°C° 0 mm 3 mps 749 mmHg 95%
    03:00 -18°C° 0 mm 3 mps 749 mmHg 96%
    04:00 -18°C° 0 mm 3 mps 750 mmHg 96%
    05:00 -17°C° 0 mm 3 mps 750 mmHg 96%
    06:00 -16°C° 0 mm 3 mps 750 mmHg 95%
    07:00 -15°C° 0 mm 3 mps 750 mmHg 95%
    08:00 -15°C° 0 mm 4 mps 750 mmHg 94%
    09:00 -12°C° 0 mm 4 mps 750 mmHg 93%
    10:00 -12°C° 0 mm 5 mps 750 mmHg 92%
    11:00 -11°C° 0 mm 5 mps 750 mmHg 91%
    12:00 -11°C° 0 mm 6 mps 750 mmHg 90%
    13:00 -10°C° 0 mm 6 mps 749 mmHg 89%
    14:00 -11°C° 0.1 mm 7 mps 749 mmHg 89%
    15:00 -11°C° 0.1 mm 7 mps 749 mmHg 88%
    16:00 -11°C° 0.1 mm 7 mps 749 mmHg 88%
    17:00 -10°C° 0.2 mm 8 mps 749 mmHg 87%
    18:00 -10°C° 0.2 mm 8 mps 748 mmHg 87%
    19:00 -10°C° 0.2 mm 8 mps 748 mmHg 86%
    20:00 -10°C° 0.1 mm 8 mps 748 mmHg 87%
    21:00 -8°C° 0.1 mm 7 mps 748 mmHg 87%
    22:00 -8°C° 0.1 mm 7 mps 748 mmHg 87%
    23:00 -8°C° 0.1 mm 7 mps 749 mmHg 88%

    25 November, Sunday

    Time Temperature Precipitation Wind Pressure Humidity
    00:00 -8°C° 0.1 mm 7 mps 749 mmHg 88%
    01:00 -8°C° 0.1 mm 7 mps 749 mmHg 88%
    02:00 -8°C° 0.1 mm 7 mps 749 mmHg 89%
    03:00 -8°C° 0.1 mm 7 mps 749 mmHg 89%
    04:00 -8°C° 0.1 mm 6 mps 749 mmHg 89%
    05:00 -8°C° 0.1 mm 6 mps 749 mmHg 89%
    06:00 -8°C° 0.1 mm 6 mps 748 mmHg 89%
    07:00 -8°C° 0.1 mm 6 mps 748 mmHg 90%
    08:00 -7°C° 0.4 mm 7 mps 748 mmHg 90%
    09:00 -7°C° 0.4 mm 7 mps 748 mmHg 90%
    10:00 -7°C° 0.4 mm 7 mps 747 mmHg 91%
    11:00 -7°C° 0.5 mm 7 mps 747 mmHg 91%
    12:00 -7°C° 0.5 mm 7 mps 747 mmHg 91%
    13:00 -7°C° 0.5 mm 8 mps 747 mmHg 91%
    14:00 -7°C° 0.3 mm 7 mps 747 mmHg 90%
    15:00 -6°C° 0.3 mm 7 mps 747 mmHg 90%
    16:00 -5°C° 0.3 mm 6 mps 747 mmHg 89%
    17:00 -5°C° 0.1 mm 6 mps 748 mmHg 89%
    18:00 -6°C° 0.1 mm 6 mps 748 mmHg 89%
    19:00 -6°C° 0.1 mm 5 mps 749 mmHg 89%
    20:00 -6°C° 0 mm 5 mps 750 mmHg 90%
    21:00 -7°C° 0 mm 5 mps 750 mmHg 91%
    22:00 -7°C° 0 mm 4 mps 751 mmHg 92%
    23:00 -8°C° 0 mm 4 mps 751 mmHg 93%

    26 November, Monday

    Time Temperature Precipitation Wind Pressure Humidity
    00:00 -8°C° 0 mm 4 mps 751 mmHg 94%
    01:00 -7°C° 0 mm 3 mps 752 mmHg 94%
    02:00 -8°C° 0 mm 3 mps 752 mmHg 95%
    03:00 -9°C° 0 mm 3 mps 752 mmHg 95%
    04:00 -8°C° 0 mm 2 mps 753 mmHg 96%
    05:00 -9°C° 0 mm 2 mps 753 mmHg 96%
    06:00 -9°C° 0 mm 2 mps 753 mmHg 96%
    07:00 -10°C° 0 mm 2 mps 753 mmHg 96%
    08:00 -10°C° 0 mm 2 mps 753 mmHg 96%
    09:00 -9°C° 0 mm 2 mps 753 mmHg 96%
    10:00 -9°C° 0 mm 2 mps 753 mmHg 96%
    11:00 -9°C° 0 mm 3 mps 752 mmHg 95%
    12:00 -8°C° 0 mm 3 mps 752 mmHg 95%
    13:00 -8°C° 0 mm 3 mps 752 mmHg 95%
    14:00 -7°C° 0.2 mm 3 mps 751 mmHg 95%
    15:00 -7°C° 0.2 mm 3 mps 751 mmHg 96%
    16:00 -7°C° 0.2 mm 3 mps 750 mmHg 96%
    17:00 -7°C° 0.5 mm 3 mps 749 mmHg 96%
    18:00 -6°C° 0.5 mm 3 mps 749 mmHg 96%
    19:00 -6°C° 0.5 mm 3 mps 748 mmHg 96%
    20:00 -5°C° 0.7 mm 3 mps 747 mmHg 96%
    21:00 -5°C° 0.7 mm 3 mps 747 mmHg 96%
    22:00 -4°C° 0.7 mm 3 mps 746 mmHg 96%
    23:00 -4°C° 0.6 mm 3 mps 746 mmHg 96%
    Show more